2015 HP171

Initial reported observation by Catalina Sky Survey on 2015-04-28.
(Discoverer will be defined when the object is numbered. See this note on how discoverers are determined.)

Orbit

Orbit type: Apollo
Near-Earth Object

Note: WebGL enabled browser required.

A geocentric flyby diagram is available here.

epoch2023-02-25.0
epoch JD2460000.5
perihelion date2022-10-20.43048
perihelion JD2459872.93048
argument of perihelion (°)190.92535
ascending node (°)126.67737
inclination (°)11.73293
eccentricity0.6178277
perihelion distance (AU)0.6901661
Tisserand w.r.t. Jupiter3.8
ΔV w.r.t. Earth (km/sec)7.9
semimajor axis (AU)1.8059028
mean anomaly (°)51.80948
mean daily motion (°/day)0.40612740
aphelion distance (AU)2.922
period (years)2.43
P-vector [x]0.73531136
P-vector [y]-0.60546767
P-vector [z]-0.30450962
Q-vector [x]0.65781392
Q-vector [y]0.74572805
Q-vector [z]0.10569068
absolute magnitude20.09
phase slope0.15
uncertainty0
referenceMPO 733291
observations used111
oppositions3
arc length (days)2797
first opposition used2015
last opposition used2022
residual rms (arc-secs)0.55
perturbers coarse indicatorM-v
perturbers precise indicator003El
first observation date used2015-04-28.0
last observation date used2022-12-24.0
computer nameVeres
JD of orbit computation2457361.404479
perihelion JD uncertainty (days)6.8084E-05
argument of perihelion uncertainty (°)1.2902E-04
ascending node uncertainty (°)1.4927E-04
inclination uncertainty (°)4.3460E-05
eccentricity uncertainty 2.8971E-06
perihelion distance uncertainty (AU)1.4394E-06
Minimum Orbit Intersection Distances (in AU)
for orbit epoch: 2460000.5, reference: E2022-YH1
Mercury0.27207
Venus0.03584
Earth0.18812
Mars0.27
Jupiter2.40227
Saturn6.27516
Uranus15.5931
Neptune27.489

Observations

118 total observations over interval: 2015 04 28.39826 – 2022 12 24.11481
These data are available for download (format description).

